Location: Mahannah Oil Field
(37.4664°N, 96.6003°W)
Time: 03:53:34
(UTC+00:00)

Vanguard 2 - Pass Details

Date: 22 June 2021
Orbit: 552 x 2937 km, 32.9° (Epoch: 28 July)

Event Time Altitude Azimuth Distance (km) Brightness Sun altitude
Rises 04:31:56 0° 277° (W) 4,698 12.0 -23.2°
Reaches altitude 10° 04:36:11 10° 266° (W) 3,270 11.0 -23.6°
Enters shadow 04:42:02 25° 217° (SW) 1,798 9.1 -24.2°
